Погода в Пивоварихе

Россия / Иркутская область     52°16′24″N   104°26′58″E
темп.,
°C
ветер,
м/с
пор.,
м/с
влажн.,
%
обл.,
%
осадки,
мм/ч
давл.,
гПа
погр.,
м
2 августа, пн
пн223:00+17вюв1182100 0.0 100411
02:00+15зсз1497100 0.6 1003146
05:00+15сз2499100 0.7 1002178
08:00+14сз2499100 1.8 1002240
11:00+15с2599100 4.6 1002317
14:00+15с3898100 9.3 1003425
17:00+15ссз3999100 4.9 1004609
20:00+14сз51299100 11.1 1006732
3 августа, вт
вт323:00+13сз41299100 3.4 1007664
02:00+13сз51299100 4.9 1008677
05:00+13зсз41199100 0.4 1008597
08:00+14зсз4109791 0.5 1009565
11:00+17сз5775100 0.1 1009911
14:00+20сз5657100 0.1 10091266
17:00+19сз4561100 0.0 1009862
20:00+16зюз2284100 0.0 100949
4 августа, ср
ср423:00+14ю118974 0.2 101012
02:00+13ю1187100 0.2 101011
05:00+13юз0086100 0.0 100911
08:00+16зсз1476100 0.0 1010207
11:00+21зсз3556100 0.0 1009644
14:00+23сз355166 0.0 1007788
17:00+24з264788 0.0 10061499
20:00+20зсз11720 0.0 100611
5 августа, чт
чт523:00+15ю22861 0.0 100712
02:00+13вюв119113 0.0 100611
05:00+13вюв11905 0.0 100611
08:00+19юв01685 0.0 1005133
11:00+26всв01448 0.0 1003734
14:00+29с11345 0.0 10011750
17:00+28св223617 0.0 9991650
20:00+21юв1167100 0.0 99916
6 августа, пт
пт623:00+17юз2275100 0.0 100241
02:00+16юв118863 0.1 100016
05:00+13ю1193100 0.0 99912
08:00+16ююв1287100 0.4 999163
11:00+22ююв23612 0.1 998916
14:00+25ююз3351100 0.1 9971362
17:00+22ю446715 0.3 997695
20:00+16ююв269559 4.0 998203